Location: Squamish
(49.7000°N, 123.1500°W)
Time: 00:22:42
(UTC-08:00)

Daily predictions for brighter satellites

Satellite Brightness Start Highest point End
(mag) Time Altitude Azimuth Time Altitude Azimuth Time Altitude Azimuth
Cosmos 1943 Rocket 4.3 03:13:00 19° N 03:13:00 19° N 03:14:45 10° NNE
ATLAS 2AS CENTAUR R/B 3.6 03:20:23 49° NNW 03:20:23 49° NNW 03:27:25 10° NE
Cosmos 2369 Rocket 4.3 03:23:47 17° N 03:23:47 17° N 03:25:38 10° NNE
ADEOS II 3.5 03:27:49 10° NNE 03:30:50 34° NE 03:30:50 34° NE
Resurs 1-4 Rocket 4.4 03:31:02 10° N 03:32:04 15° N 03:32:04 15° N
CENTAUR R/B 4.2 03:42:55 31° SSE 03:42:55 31° SSE 03:46:53 10° SSE
COSMOS 2455 4.3 03:37:09 21° N 03:40:13 33° NE 03:45:38 10° E
NOSS 3-4 (A) 3.8 03:46:59 61° NNE 03:46:59 61° NNE 03:52:29 10° NE
NOSS 3-4 (C) 3.8 03:47:05 61° NNE 03:47:05 61° NNE 03:52:36 10° NE
SJ 16-02 4.1 04:07:09 10° SE 04:09:50 16° E 04:12:32 10° ENE
Cosmos 1697 Rocket 3.8 04:10:38 28° SSE 04:12:54 40° ESE 04:18:06 10° NE
Cosmos 2298 Rocket 4.5 04:15:17 52° SE 04:16:02 57° ESE 04:21:15 10° NNE
Lacrosse 5 rocket 3.6 04:21:58 16° SE 04:21:58 16° SE 04:22:50 10° SE
MOS 1-B 4.2 04:25:05 10° NNE 04:30:54 84° WNW 04:32:03 60° SSW
Cosmos 1869 Rocket 3.8 04:26:58 10° N 04:31:23 69° ENE 04:35:49 10° SSE
Cosmos 2150 Rocket 4.1 04:31:44 51° S 04:32:54 69° ESE 04:38:02 10° NNE
CZ-2D R/B 4.4 04:32:32 10° NNW 04:32:55 11° NNW 04:32:55 11° NNW
Cosmos 1869 4.4 04:38:40 37° N 04:38:40 37° N 04:41:08 10° N
CZ-4B R/B 3.6 04:32:23 10° NNE 04:37:45 60° ESE 04:43:12 10° S
EXPRESS MD2 3.7 04:40:47 62° SE 04:40:47 62° SE 04:46:06 10° ESE
Cosmos 2098 Rocket 4.0 04:40:17 55° W 04:40:40 55° WNW 04:47:32 10° N
IDEFIX/ARIANE 42P 4.4 04:37:17 10° NNE 04:41:52 30° E 04:46:24 10° SSE
Cosmos 858 Rocket 4.4 04:42:01 69° W 04:42:22 72° WNW 04:47:42 10° NNE
Okean O Rocket 1.6 04:41:49 10° NNE 04:46:17 84° ESE 04:47:11 57° S
CZ-4B DEB 4.1 04:47:13 10° NNE 04:52:44 88° ESE 04:56:56 18° SSW
Cosmos 1934 Rocket 4.2 04:48:08 10° S 04:54:28 76° E 05:00:51 10° NNE
Cosmos 158 Rocket 3.7 04:50:57 16° NNW 04:55:02 79° WSW 05:00:10 10° SSE
Cosmos 1943 Rocket 4.3 04:54:30 11° NNW 04:55:10 12° NNW 04:57:04 10° N
Cosmos 2263 Rocket 3.5 04:51:05 10° NNW 04:56:23 39° NE 05:01:40 10° ESE
Genesis I 3.1 04:58:19 76° NW 04:58:19 76° NW 05:02:19 10° NE
Cosmos 1048 Rocket 4.0 04:53:11 10° NNW 04:58:24 78° ENE 05:03:31 10° SSE
Cosmos 2123 Rocket 3.9 04:52:23 10° N 04:58:39 89° WSW 05:04:55 10° S
NOSS 8 (E) 4.5 05:01:58 75° S 05:02:11 80° SE 05:06:04 10° NE
CZ-4B R/B 4.3 04:59:59 10° N 05:01:43 24° NNW 05:01:43 24° NNW
Cosmos 2278 3.7 05:02:16 40° WSW 05:04:14 65° WNW 05:09:56 10° NNE
SKYMED 2 3.9 05:01:53 10° SSE 05:06:11 66° ENE 05:10:31 10° N
Cosmos 1898 Rocket 3.9 05:06:27 40° WNW 05:07:01 41° WNW 05:12:04 10° NNE
Cosmos 1862 3.4 05:04:08 10° NNW 05:08:42 52° SW 05:12:00 10° S
Cosmos 1937 Rocket 3.7 05:08:33 42° W 05:09:45 50° WNW 05:14:56 10° NNE
PAYLOAD B 4.1 05:05:24 10° N 05:10:53 68° WNW 05:15:09 17° SSW
USA 116 4.1 05:07:04 10° S 05:11:40 75° WSW 05:16:49 10° NNW
ADEOS II 3.3 05:08:14 10° N 05:11:47 24° NW 05:11:47 24° NW
ATLAS 2AS CENTAUR R/B 4.2 05:07:48 19° NW 05:12:27 31° N 05:19:24 10° NE
NOSS 2-2 (D) 4.5 05:12:16 32° NW 05:12:54 33° NNW 05:17:31 10° NE
Cosmos 1933 3.7 05:09:55 10° S 05:13:56 65° E 05:17:59 10° NNE
Cosmos 2322 Rocket 4.4 05:10:22 10° SSE 05:14:57 26° ESE 05:19:34 10° NE
RESURS DK-1 4.1 05:15:49 19° NNW 05:15:49 19° NNW 05:18:19 10° N
Cosmos 1821 Rocket 3.9 05:09:48 11° SSW 05:15:41 61° WNW 05:21:54 10° N
Cosmos 2227 4.1 05:10:37 10° NNW 05:16:18 83° WSW 05:21:55 10° SSE
Cosmos 372 Rocket 4.4 05:13:32 10° S 05:18:33 61° ESE 05:23:37 10° NNE
Cosmos 1125 Rocket 4.0 05:13:57 10° S 05:19:04 61° ESE 05:24:12 10° NNE
Cosmos 990 Rocket 4.4 05:21:25 33° W 05:23:02 42° WNW 05:28:02 10° NNE
Landsat 4 4.1 05:19:40 10° SSE 05:23:22 64° ENE 05:27:04 10° N
CZ-4B R/B 4.2 05:20:20 10° N 05:24:43 55° WNW 05:27:30 21° SW
IRS-1C Rocket 4.0 05:19:38 10° NNE 05:24:55 74° WNW 05:30:11 10° SSW
Meteor 2-10 Rocket 3.4 05:21:04 13° SSW 05:25:26 59° WNW 05:30:25 10° N
CZ-2C R/B 3.7 05:21:12 10° S 05:25:50 60° WSW 05:30:25 10° NNW
Cosmos 1980 Rocket 2.2 05:20:27 10° SSW 05:26:07 82° ESE 05:31:49 10° NNE
Cosmos 1656 3.9 05:24:22 30° WSW 05:26:34 45° NW 05:31:51 10° NNE
COSMOS 2455 2.8 05:20:38 10° NW 05:26:39 69° WSW 05:32:37 10° SSE
Meteor 1-31 Rocket 3.0 05:23:26 10° N 05:27:07 45° WNW 05:28:07 36° WSW
Cosmos 1535 Rocket 4.5 05:21:36 10° SSW 05:27:38 58° WNW 05:33:40 10° N
CENTAUR R/B 4.4 05:30:13 17° SW 05:30:13 17° SW 05:33:33 10° SW
ERBS 4.1 05:30:25 19° NNW 05:31:41 24° N 05:34:33 10° ENE
Cosmos 2369 4.2 05:29:26 27° WSW 05:31:59 41° NW 05:37:25 10° NNE
USA 229 DEB 4.3 05:27:04 10° NW 05:34:07 62° NE 05:41:22 10° ESE
USA 229 4.3 05:27:10 10° NW 05:34:13 62° NE 05:41:28 10° ESE
Cosmos 1441 Rocket 4.0 05:31:14 10° S 05:35:08 55° E 05:39:04 10° NNE
CZ-3 R/B 4.2 05:29:36 15° WSW 05:38:20 22° SSW 05:44:26 10° SSE
NOSS 8 (H) 4.5 05:37:25 32° WSW 05:38:49 63° NW 05:42:35 10° NE
Okean-O 2.8 05:36:45 10° NNE 05:41:12 74° ESE 05:45:38 10° S
ATLAS 5 CENTAUR R/B 3.4 05:37:19 10° S 05:41:26 34° ESE 05:45:56 10° NE
Cosmos 1733 Rocket 2.9 05:38:04 10° NNW 05:42:27 74° W 05:46:50 10° S
Cosmos 1862 Rocket 3.7 05:43:11 10° S 05:47:31 75° E 05:51:56 10° NNE
MTI 3.7 05:44:39 10° S 05:47:48 59° WSW 05:50:58 10° NNW
SJ 16-02 1.3 05:43:31 10° SSW 05:47:55 65° WNW 05:52:20 10° NNE
Geosat 3.9 05:45:10 10° SSE 05:50:10 69° WSW 05:55:13 10° NNW
Feng Yun 1-1 Rocket 4.2 05:46:31 10° NNE 05:52:03 86° WNW 05:57:43 10° SSW
COSMO-SKYMED 1 2.9 05:50:15 10° S 05:54:22 42° W 05:58:31 10° NNW
Cosmos 1269 Rocket 4.2 05:51:00 10° NNW 05:56:04 48° WSW 06:01:06 10° S
Cosmos 405 3.5 05:53:12 10° NNW 05:56:32 38° W 05:59:52 10° SSW
Cosmos 1697 Rocket 3.1 05:52:25 14° WSW 05:56:52 41° NW 06:02:12 10° NNE
Lacrosse 5 rocket 3.3 05:57:42 12° SW 05:57:42 12° SW 05:59:06 10° SSW
Meteor 2-17 Rocket 4.5 05:53:05 10° SSW 05:59:01 57° WNW 06:05:03 10° N
SL-16 R/B 3.0 05:54:06 10° S 05:59:37 55° ESE 06:05:09 10° NE
Cosmos 1437 Rocket 3.5 05:56:18 10° N 06:00:21 58° ENE 06:04:20 10° SSE
Cosmos 494 Rocket 3.9 05:55:22 10° NNW 06:00:32 83° WSW 06:05:39 10° SSE
Meteor 1-26 Rocket 4.3 05:54:49 10° S 06:00:43 88° W 06:06:35 10° NNE
Cosmos 1605 Rocket 4.0 05:55:09 10° SSW 06:01:08 54° WNW 06:07:07 10° N
CZ-2C R/B 2.5 05:59:23 10° NNE 06:04:27 82° WNW 06:09:36 10° SSW
Cosmos 2100 Rocket 4.2 05:59:29 10° S 06:05:37 77° E 06:11:47 10° NNE
NOSS 3-1 (C) 4.5 06:01:31 10° NW 06:08:42 62° NE 06:16:50 10° ESE
NOAA 6 4.1 06:03:57 10° N 06:09:01 56° WNW 06:14:02 10° SW
BREEZE M DEB (TANK) 1.0 06:09:53 18° W 06:11:18 87° SSE 06:13:56 10° E
Cosmos 1606 3.1 06:08:32 10° S 06:12:20 68° E 06:16:07 10° NNE
Meteor 1-14 Rocket 4.4 06:11:54 10° NNW 06:17:47 58° W 06:23:34 10° S
CZ-4B R/B 4.2 06:13:34 10° N 06:17:59 26° WNW 06:22:26 10° WSW
Cosmos 1484 Rocket 3.3 06:16:46 10° NNE 06:20:45 67° ESE 06:24:43 10° S
Meteor 1-20 Rocket 4.3 06:15:11 10° NNW 06:20:59 63° W 06:26:40 10° S
PAYLOAD A 4.2 06:16:43 10° N 06:21:13 44° WNW 06:25:48 10° SW
IDEFIX/ARIANE 42P 2.9 06:16:40 10° N 06:21:39 45° WNW 06:26:35 10° SW
Okean O Rocket 3.3 06:19:34 10° NNW 06:22:03 15° WNW 06:24:31 10° W
Meteor 1-4 Rocket 3.7 06:18:26 10° N 06:22:07 50° ENE 06:25:48 10° SSE
SMAP 4.1 06:21:24 10° NNE 06:25:59 53° E 06:30:32 10° S
Cosmos 405 Rocket 3.2 06:24:24 10° SW 06:28:06 38° WNW 06:31:46 10° N
Cosmos 2061 Rocket 4.0 06:24:24 10° S 06:30:37 89° W 06:36:52 10° N
Cosmos 1782 Rocket 3.5 06:29:50 10° N 06:34:13 84° W 06:38:33 10° S
Cosmos 2278 Rocket 4.2 06:30:06 10° NNW 06:34:40 24° NE 06:39:14 10° E
Cosmos 1802 Rocket 4.1 06:28:45 10° S 06:35:10 84° W 06:41:32 10° N
Cosmos 2173 Rocket 4.0 06:29:29 10° SSW 06:35:40 73° W 06:41:49 10° N
Cosmos 1459 Rocket 4.0 06:29:26 10° SSW 06:35:41 72° W 06:42:04 10° N
Cosmos 2016 Rocket 4.2 06:29:37 10° S 06:35:57 85° E 06:42:22 10° N
Aureole 3 3.9 06:33:42 10° NW 06:36:06 22° W 06:38:29 10° SW
CSL-04 Rocket 4.4 06:31:02 10° NNE 06:36:17 60° ESE 06:41:32 10° S
Sich 1 Rocket 3.6 06:33:47 10° NNW 06:38:07 60° W 06:42:25 10° S
Cosmos 2263 Rocket 2.6 06:35:03 10° NW 06:40:23 44° WSW 06:45:43 10° S
Thor Agena Rocket 3.6 06:36:00 10° S 06:41:15 71° WSW 06:46:29 10° NNW
Cosmos 2251 Rocket 3.6 06:36:09 10° NNW 06:41:23 63° WSW 06:46:37 10° S
